When you browse on this site, cookies collect data to enhance your experience and personalize the content and advertising you see.
Visit our Privacy Policy to learn more. By continuing to use the site, you agree to this use of cookies and data.
  • In Portugal
  • List of Countries
  • For 7 days
  • Water Temperature
  • Satellite Maps
  • Weather Map
  • Weather Widgets
  • user-avatar
    Login

    Hourly Weather Elizanow

    Today, 20 June, Thursday

    Time Temperature Precipitation Wind Pressure Humidity
    00:00 +20°C° 0 mm 2 mps 746 mmHg 85%
    01:00 +19°C° 0 mm 2 mps 746 mmHg 86%
    02:00 +19°C° 0 mm 2 mps 746 mmHg 87%
    03:00 +19°C° 0 mm 2 mps 746 mmHg 87%
    04:00 +19°C° 0 mm 2 mps 746 mmHg 87%
    05:00 +21°C° 0 mm 2 mps 746 mmHg 84%
    06:00 +23°C° 0 mm 2 mps 746 mmHg 80%
    07:00 +24°C° 0 mm 2 mps 746 mmHg 77%
    08:00 +26°C° 0 mm 2 mps 746 mmHg 71%
    09:00 +27°C° 0 mm 2 mps 746 mmHg 65%
    10:00 +28°C° 0 mm 2 mps 746 mmHg 59%
    11:00 +29°C° 0 mm 2 mps 746 mmHg 55%
    12:00 +30°C° 0 mm 2 mps 746 mmHg 51%
    13:00 +31°C° 0 mm 2 mps 746 mmHg 47%
    14:00 +31°C° 0 mm 2 mps 746 mmHg 46%
    15:00 +31°C° 0 mm 2 mps 746 mmHg 46%
    16:00 +31°C° 0 mm 2 mps 746 mmHg 46%
    17:00 +30°C° 0 mm 2 mps 746 mmHg 53%
    18:00 +28°C° 0 mm 1 mps 746 mmHg 59%
    19:00 +27°C° 0 mm 1 mps 746 mmHg 66%
    20:00 +25°C° 0.6 mm 1 mps 746 mmHg 72%
    21:00 +24°C° 0.6 mm 1 mps 747 mmHg 77%
    22:00 +21°C° 0.6 mm 2 mps 747 mmHg 83%
    23:00 +20°C° 0.3 mm 2 mps 747 mmHg 86%

    Tomorrow, 21 June, Friday

    Time Temperature Precipitation Wind Pressure Humidity
    00:00 +20°C° 0.3 mm 3 mps 747 mmHg 89%
    01:00 +19°C° 0.3 mm 4 mps 747 mmHg 92%
    02:00 +19°C° 0.1 mm 3 mps 748 mmHg 92%
    03:00 +19°C° 0.1 mm 3 mps 748 mmHg 93%
    04:00 +19°C° 0.1 mm 2 mps 748 mmHg 94%
    05:00 +20°C° 0 mm 3 mps 748 mmHg 90%
    06:00 +21°C° 0 mm 3 mps 749 mmHg 86%
    07:00 +22°C° 0 mm 3 mps 749 mmHg 82%
    08:00 +24°C° 0.4 mm 3 mps 749 mmHg 78%
    09:00 +25°C° 0.4 mm 4 mps 749 mmHg 75%
    10:00 +26°C° 0.4 mm 4 mps 750 mmHg 72%
    11:00 +26°C° 0.6 mm 4 mps 750 mmHg 71%
    12:00 +26°C° 0.6 mm 4 mps 750 mmHg 69%
    13:00 +25°C° 0.6 mm 4 mps 750 mmHg 68%
    14:00 +26°C° 0 mm 4 mps 750 mmHg 67%
    15:00 +26°C° 0 mm 3 mps 750 mmHg 66%
    16:00 +26°C° 0 mm 3 mps 750 mmHg 64%
    17:00 +25°C° 0.3 mm 3 mps 750 mmHg 70%
    18:00 +24°C° 0.3 mm 3 mps 750 mmHg 76%
    19:00 +22°C° 0.3 mm 3 mps 750 mmHg 82%
    20:00 +21°C° 0 mm 3 mps 751 mmHg 85%
    21:00 +20°C° 0 mm 2 mps 751 mmHg 89%
    22:00 +19°C° 0 mm 2 mps 752 mmHg 92%
    23:00 +18°C° 0 mm 3 mps 752 mmHg 92%

    Day after tomorrow, 22 June, Saturday

    Time Temperature Precipitation Wind Pressure Humidity
    00:00 +17°C° 0 mm 3 mps 752 mmHg 93%
    01:00 +17°C° 0 mm 4 mps 753 mmHg 93%
    02:00 +16°C° 0 mm 3 mps 753 mmHg 92%
    03:00 +16°C° 0 mm 3 mps 753 mmHg 92%
    04:00 +14°C° 0 mm 3 mps 753 mmHg 92%
    05:00 +16°C° 0 mm 3 mps 754 mmHg 88%
    06:00 +17°C° 0 mm 3 mps 754 mmHg 84%
    07:00 +18°C° 0 mm 4 mps 754 mmHg 80%
    08:00 +19°C° 0 mm 4 mps 755 mmHg 72%
    09:00 +20°C° 0 mm 4 mps 755 mmHg 65%
    10:00 +22°C° 0 mm 4 mps 755 mmHg 58%
    11:00 +22°C° 0 mm 4 mps 755 mmHg 57%
    12:00 +23°C° 0 mm 4 mps 754 mmHg 56%
    13:00 +23°C° 0 mm 5 mps 754 mmHg 55%
    14:00 +23°C° 0 mm 5 mps 754 mmHg 57%
    15:00 +23°C° 0 mm 5 mps 754 mmHg 58%
    16:00 +23°C° 0 mm 5 mps 754 mmHg 60%
    17:00 +22°C° 0 mm 5 mps 754 mmHg 65%
    18:00 +21°C° 0 mm 5 mps 754 mmHg 70%
    19:00 +20°C° 0 mm 5 mps 754 mmHg 75%
    20:00 +19°C° 0 mm 5 mps 754 mmHg 76%
    21:00 +16°C° 0 mm 5 mps 754 mmHg 77%
    22:00 +15°C° 0 mm 5 mps 755 mmHg 79%
    23:00 +14°C° 0 mm 5 mps 755 mmHg 79%

    23 June, Sunday

    Time Temperature Precipitation Wind Pressure Humidity
    00:00 +14°C° 0 mm 4 mps 755 mmHg 79%
    01:00 +13°C° 0 mm 4 mps 755 mmHg 78%
    02:00 +13°C° 0 mm 4 mps 755 mmHg 76%
    03:00 +12°C° 0 mm 4 mps 755 mmHg 73%
    04:00 +12°C° 0 mm 4 mps 755 mmHg 70%
    05:00 +13°C° 0 mm 4 mps 755 mmHg 72%
    06:00 +13°C° 0 mm 4 mps 755 mmHg 73%
    07:00 +13°C° 0 mm 4 mps 755 mmHg 74%
    08:00 +15°C° 0 mm 4 mps 755 mmHg 73%
    09:00 +17°C° 0 mm 4 mps 755 mmHg 71%
    10:00 +19°C° 0 mm 4 mps 755 mmHg 70%
    11:00 +20°C° 0 mm 4 mps 755 mmHg 67%
    12:00 +21°C° 0 mm 4 mps 755 mmHg 64%
    13:00 +22°C° 0 mm 4 mps 755 mmHg 61%
    14:00 +22°C° 0 mm 4 mps 755 mmHg 60%
    15:00 +22°C° 0 mm 4 mps 755 mmHg 59%
    16:00 +22°C° 0 mm 4 mps 755 mmHg 58%
    17:00 +21°C° 0 mm 4 mps 755 mmHg 63%
    18:00 +20°C° 0 mm 4 mps 755 mmHg 68%
    19:00 +19°C° 0 mm 3 mps 755 mmHg 73%
    20:00 +18°C° 0 mm 3 mps 756 mmHg 79%
    21:00 +16°C° 0 mm 3 mps 756 mmHg 86%
    22:00 +14°C° 0 mm 3 mps 757 mmHg 92%
    23:00 +14°C° 0 mm 3 mps 757 mmHg 92%

    24 June, Monday

    Time Temperature Precipitation Wind Pressure Humidity
    00:00 +13°C° 0 mm 3 mps 757 mmHg 93%
    01:00 +13°C° 0 mm 3 mps 757 mmHg 93%
    02:00 +12°C° 0 mm 3 mps 757 mmHg 93%
    03:00 +12°C° 0 mm 3 mps 757 mmHg 93%
    04:00 +11°C° 0 mm 3 mps 757 mmHg 92%
    05:00 +13°C° 0 mm 3 mps 757 mmHg 86%
    06:00 +14°C° 0 mm 3 mps 757 mmHg 79%
    07:00 +17°C° 0 mm 3 mps 758 mmHg 73%
    08:00 +19°C° 0 mm 3 mps 758 mmHg 67%
    09:00 +20°C° 0 mm 3 mps 758 mmHg 61%
    10:00 +22°C° 0 mm 3 mps 758 mmHg 55%
    11:00 +24°C° 0 mm 3 mps 758 mmHg 52%
    12:00 +24°C° 0 mm 3 mps 758 mmHg 49%
    13:00 +25°C° 0 mm 3 mps 757 mmHg 47%
    14:00 +25°C° 0 mm 3 mps 757 mmHg 47%
    15:00 +25°C° 0 mm 3 mps 757 mmHg 46%
    16:00 +25°C° 0 mm 3 mps 757 mmHg 46%
    17:00 +24°C° 0 mm 3 mps 757 mmHg 53%
    18:00 +23°C° 0 mm 2 mps 757 mmHg 59%
    19:00 +21°C° 0 mm 2 mps 757 mmHg 66%
    20:00 +19°C° 0 mm 2 mps 758 mmHg 70%
    21:00 +18°C° 0 mm 2 mps 758 mmHg 73%
    22:00 +16°C° 0 mm 2 mps 758 mmHg 77%
    23:00 +16°C° 0 mm 2 mps 758 mmHg 80%

    25 June, Tuesday

    Time Temperature Precipitation Wind Pressure Humidity
    00:00 +15°C° 0 mm 2 mps 758 mmHg 84%
    01:00 +14°C° 0 mm 2 mps 758 mmHg 87%
    02:00 +14°C° 0 mm 2 mps 758 mmHg 87%
    03:00 +14°C° 0 mm 2 mps 758 mmHg 88%
    04:00 +13°C° 0 mm 2 mps 758 mmHg 89%
    05:00 +15°C° 0 mm 2 mps 759 mmHg 83%
    06:00 +17°C° 0 mm 2 mps 759 mmHg 78%
    07:00 +19°C° 0 mm 2 mps 759 mmHg 72%
    08:00 +20°C° 0 mm 2 mps 759 mmHg 67%
    09:00 +22°C° 0 mm 3 mps 759 mmHg 61%
    10:00 +24°C° 0 mm 3 mps 759 mmHg 55%
    11:00 +25°C° 0 mm 3 mps 759 mmHg 52%
    12:00 +26°C° 0 mm 2 mps 759 mmHg 49%
    13:00 +26°C° 0 mm 2 mps 758 mmHg 46%
    14:00 +26°C° 0 mm 2 mps 758 mmHg 47%
    15:00 +26°C° 0 mm 3 mps 758 mmHg 48%
    16:00 +26°C° 0 mm 3 mps 758 mmHg 49%
    17:00 +25°C° 0 mm 2 mps 758 mmHg 55%
    18:00 +24°C° 0 mm 2 mps 758 mmHg 62%
    19:00 +23°C° 0 mm 2 mps 758 mmHg 68%
    20:00 +20°C° 0 mm 2 mps 758 mmHg 71%
    21:00 +19°C° 0 mm 2 mps 758 mmHg 74%
    22:00 +17°C° 0 mm 2 mps 758 mmHg 77%
    23:00 +17°C° 0 mm 2 mps 758 mmHg 78%
    Show more